Theta_e
296 296 297 297 298 298 298 299 298 298 298 297 297 297 297 298 302 303 304 304 302 302 302 301 300 301 299 297 296 295 294 293 291 292 284 284 284 284 284 285 286 285 286
295 295 296 296 296 296 297 297 297 297 295 295 294 295 297 299 300 301 301 302 301 300 300 298 298 298 297 297 294 292 292 292 292 290 282 281 282 284 284 283 284 285 284
293 293 294 294 294 295 295 295 295 294 294 293 292 291 293 295 297 298 299 299 299 299 298 295 297 295 295 295 293 292 292 291 290 290 282 281 281 282 281 282 283 283 284
290 291 291 292 292 293 293 293 292 292 292 291 290 290 289 290 291 292 292 294 295 295 295 294 295 294 294 293 292 291 290 288 287 287 281 280 280 281 281 280 279 280 280
287 288 288 288 289 289 289 289 289 289 289 289 288 288 287 288 288 289 289 290 290 291 290 291 291 291 291 293 291 289 287 287 285 285 280 279 278 278 278 280 279 279 279
285 285 285 285 285 285 286 287 287 287 287 287 287 286 286 286 290 292 290 287 287 287 288 288 288 287 288 292 293 293 289 287 285 285 283 280 279 278 279 279 278 277 275
283 283 283 283 283 284 284 285 285 285 285 285 285 285 285 285 290 291 291 286 285 285 286 287 286 286 286 286 290 292 291 291 290 286 284 282 279 280 280 278 278 278 278
282 282 282 282 282 283 283 283 283 283 282 282 282 282 281 283 289 290 290 284 284 285 286 286 286 285 285 285 285 286 286 286 288 286 284 283 283 282 282 281 280 279 279
282 282 281 280 279 280 280 281 281 278 279 277 279 278 276 280 286 288 288 283 285 285 285 285 285 284 286 288 284 284 283 283 287 287 287 287 287 285 283 281 279 278 276
281 281 280 279 275 277 278 279 277 274 279 278 279 276 279 280 284 287 287 285 284 284 283 283 283 283 285 287 285 283 281 281 282 283 283 286 286 285 286 284 281 278 276
279 279 279 277 275 276 276 275 272 274 275 272 274 274 274 281 283 286 287 285 284 283 282 281 282 285 286 287 287 283 282 283 285 284 283 283 283 283 283 282 282 280 277
277 276 275 274 276 275 268 270 269 268 271 272 270 275 277 279 281 284 285 287 287 283 281 281 281 284 286 287 287 285 287 285 283 282 281 280 280 281 281 281 281 280 280
273 274 273 274 275 273 269 273 269 266 266 270 270 273 275 276 276 282 284 286 287 283 282 282 284 284 286 286 287 286 285 282 281 280 280 279 280 280 280 280 280 279 279
275 274 276 274 276 273 275 274 268 270 269 271 272 273 272 272 273 274 277 279 284 283 283 282 283 284 285 285 284 285 283 283 282 280 279 279 279 278 277 277 276 275 275
272 273 274 276 275 276 274 273 273 273 273 268 268 268 267 270 273 279 278 278 282 282 279 279 279 280 280 280 281 282 282 281 280 280 279 278 277 276 276 277 275 273 273
268 270 272 273 277 276 271 272 280 283 284 284 284 281 274 281 284 285 284 284 285 284 278 277 277 278 278 279 279 279 280 281 280 279 278 277 276 276 276 273 273 272 271
263 267 269 271 276 276 269 269 269 275 284 285 285 285 285 285 284 284 284 285 286 282 277 277 277 277 277 277 278 278 277 277 277 277 276 276 277 276 275 274 273 271 268
261 264 267 273 276 273 270 269 267 268 268 269 277 279 280 282 283 285 285 284 283 280 277 276 276 276 276 276 275 275 274 273 274 273 274 275 276 275 272 273 271 264 263
262 265 271 275 276 272 269 270 270 270 270 267 267 274 274 278 279 278 278 275 274 272 271 269 269 270 270 270 270 270 270 269 270 270 269 268 267 267 267 265 265 265 263
262 265 269 270 274 271 267 271 272 272 270 268 267 266 266 269 269 266 266 268 267 266 266 265 265 264 264 264 265 265 265 265 265 264 263 263 263 263 262 261 261 261 259
263 264 267 267 267 267 269 270 273 272 269 267 265 269 272 264 263 263 261 260 261 261 262 262 261 261 260 260 261 261 260 260 259 259 259 258 258 258 257 259 256 255 256
264 265 265 264 266 267 266 266 268 269 268 265 263 266 267 261 260 260 258 257 256 256 256 257 256 256 256 256 256 257 258 256 256 256 257 257 258 254 254 254 254 255 255
264 264 265 265 265 266 265 265 265 265 264 263 263 261 260 258 257 256 254 252 252 252 253 253 253 253 252 253 253 254 255 255 255 254 255 254 252 251 250 250 251 251 251
262 263 263 264 265 265 264 263 263 263 263 262 261 260 259 258 256 254 252 253 251 251 251 253 254 254 253 252 252 251 251 250 248 251 252 250 247 246 247 247 249 250 251
261 261 261 261 262 262 262 261 262 261 261 261 260 259 259 258 258 256 255 253 253 253 252 253 252 251 250 250 249 249 250 253 247 246 242 244 245 243 243 244 245 245 248
259 259 259 260 260 260 260 260 260 260 260 260 260 259 258 258 258 256 255 255 255 254 253 252 251 251 249 249 248 250 252 256 250 249 243 243 243 241 240 242 242 244 246
Wind_Speed
6 4 4 4 4 3 4 5 6 5 6 7 7 7 7 7 7 8 9 8 10 10 11 12 13 12 8 7 8 8 9 8 11 4 2 2 6 9 8 9 9 9 9
6 5 5 5 4 4 5 6 5 6 5 7 6 6 6 8 8 10 10 9 10 10 10 10 11 8 12 10 9 11 11 10 9 13 3 4 4 9 9 10 8 8 9
9 8 7 7 6 6 5 6 6 6 6 6 6 7 9 9 9 10 10 9 10 10 9 9 11 9 11 8 8 9 9 8 8 7 3 2 2 6 6 6 7 6 6
8 8 8 8 8 7 7 6 6 5 6 6 6 7 7 6 7 6 7 7 7 7 7 8 10 11 12 10 9 10 8 7 7 7 3 3 2 3 4 6 4 3 5
8 8 9 8 7 7 7 7 7 6 6 5 6 6 6 5 5 7 7 8 8 7 6 7 8 9 12 12 7 8 8 8 6 7 4 4 5 5 9 5 5 4 4
7 7 7 7 8 8 8 8 7 7 7 6 6 6 6 4 10 11 8 6 6 7 8 7 7 7 8 14 15 14 13 10 10 7 7 7 7 5 6 7 6 5 4
5 5 6 6 6 6 6 6 7 7 6 7 7 6 7 6 10 11 11 5 6 6 6 6 5 5 7 7 12 15 15 18 14 10 10 8 7 9 10 9 8 6 3
5 5 5 6 7 7 7 7 7 5 5 5 6 5 4 5 10 10 11 5 5 7 7 6 7 7 8 7 7 8 7 7 9 6 6 6 7 11 11 7 8 5 5
6 5 5 5 6 7 7 7 6 4 4 3 3 6 3 6 10 10 8 3 6 7 6 6 7 8 11 14 8 8 6 4 8 11 10 13 13 18 13 9 8 8 3
6 7 5 4 3 6 6 7 3 3 5 4 6 3 5 6 9 9 9 3 6 5 4 5 10 8 12 13 8 8 8 7 7 6 6 10 11 13 19 8 8 8 4
5 7 7 6 6 5 6 3 4 5 5 4 4 4 4 4 5 9 10 3 5 4 4 3 4 12 13 14 13 8 8 10 12 8 6 5 5 7 6 6 8 8 4
5 6 7 7 5 5 4 4 4 4 5 6 5 5 3 3 5 8 9 11 9 5 4 3 3 11 14 14 11 12 12 14 6 6 6 5 5 5 5 6 6 3 2
5 6 6 6 5 4 4 5 4 3 2 4 3 4 4 3 3 10 10 11 11 4 2 4 8 11 13 8 10 12 11 5 5 6 5 3 3 3 5 4 4 4 4
8 8 8 6 7 5 3 2 2 3 3 3 4 4 4 3 3 2 2 3 5 4 2 1 3 5 6 5 7 7 3 4 4 3 3 3 4 3 3 2 3 3 2
6 7 8 6 6 6 3 4 3 3 4 3 3 2 2 5 4 6 5 2 2 4 3 1 1 1 1 2 3 3 3 4 4 2 2 3 2 3 2 2 2 2 3
8 6 7 8 8 6 4 5 8 8 8 7 7 4 2 9 15 8 6 6 8 10 2 1 2 2 3 2 2 2 2 4 3 2 2 3 3 3 3 2 2 2 3
6 7 6 7 7 6 3 2 2 5 6 3 9 16 11 6 6 5 3 3 11 6 2 1 1 1 1 1 2 2 2 3 3 2 1 2 2 2 3 2 2 2 2
6 9 7 7 7 4 3 4 2 3 2 3 6 8 11 12 14 5 1 3 4 3 2 2 2 2 2 3 3 2 2 3 3 2 2 3 3 2 2 1 2 3 2
6 5 6 7 6 5 4 3 3 2 1 1 3 4 8 9 11 14 15 5 4 5 5 5 5 5 5 5 5 5 5 5 4 4 4 4 3 2 2 2 1 1 3
5 8 8 6 6 4 3 3 2 2 2 2 2 2 3 3 4 5 6 6 6 5 5 5 5 5 5 5 5 4 4 4 4 4 3 3 3 2 3 2 2 2 1
5 6 7 4 2 2 1 1 2 3 3 3 2 3 8 4 4 5 5 5 5 4 4 4 4 4 4 3 3 4 4 3 3 2 2 2 2 3 2 3 3 3 2
5 5 4 3 2 2 2 2 2 3 4 3 2 4 10 4 4 5 5 4 3 3 2 3 3 3 3 3 2 3 3 3 2 2 3 2 2 2 2 2 2 2 2
4 3 2 1 2 2 3 3 4 4 4 3 2 2 3 4 3 3 3 2 2 2 1 3 2 2 1 2 2 2 2 2 2 1 2 2 2 2 2 1 2 1 1
4 3 2 2 2 2 3 3 4 5 4 3 3 3 3 2 3 2 1 1 1 1 1 1 1 2 1 1 1 1 1 1 1 2 3 3 2 2 2 2 1 2 2
4 3 3 3 3 2 2 3 3 3 3 2 2 2 2 1 1 1 1 1 1 1 1 0 0 0 1 2 2 2 3 1 3 4 3 4 4 4 2 2 2 2 2
4 4 3 3 3 3 3 3 2 2 2 1 1 1 1 1 1 1 1 2 2 2 2 1 2 3 4 4 4 5 5 5 4 6 4 4 4 3 2 3 4 3 3
Wind_Direction
14 15 8 351 342 307 257 259 243 230 214 215 223 222 219 217 219 228 233 224 211 219 216 219 224 222 221 211 208 215 219 220 247 234 152 146 177 189 187 196 193 184 187
355 4 7 353 347 329 311 292 270 256 243 231 223 220 217 220 218 222 227 223 224 225 225 221 225 218 223 216 203 210 214 214 228 251 149 169 173 198 184 190 187 188 181
5 5 2 358 349 333 314 285 279 263 248 241 221 221 222 221 216 222 223 221 226 228 224 217 230 221 231 227 211 214 215 216 216 235 176 142 146 178 170 192 191 188 186
4 7 2 356 346 335 317 310 296 274 267 252 234 241 233 223 227 223 216 223 226 226 223 221 227 220 227 225 218 214 208 204 204 215 164 148 143 153 169 175 166 162 180
3 4 355 338 333 330 333 322 309 305 286 281 271 258 247 223 221 219 219 226 228 235 233 234 233 228 224 223 211 212 189 201 187 204 172 159 166 162 188 163 170 159 177
2 354 334 343 336 337 333 327 325 316 306 284 269 259 261 244 241 235 221 221 227 236 249 249 240 238 242 243 233 220 197 200 202 200 200 205 192 152 151 167 151 152 182
356 348 348 338 332 333 320 321 314 307 296 287 280 263 252 242 251 244 237 214 220 227 229 239 246 236 232 234 243 241 225 224 215 203 205 195 172 169 155 162 172 172 165
352 338 342 345 336 332 333 332 326 312 305 299 289 280 269 273 267 255 246 209 212 223 225 222 227 229 222 219 215 216 206 210 230 195 201 183 176 162 168 163 164 115 90
343 332 326 327 326 327 328 324 314 304 304 287 287 304 279 281 288 276 263 211 233 238 229 218 225 226 227 227 212 203 175 167 160 152 167 173 162 163 158 139 147 152 138
332 322 314 302 290 310 311 313 290 304 293 308 308 273 276 279 296 282 271 209 243 240 227 230 226 229 238 235 216 187 180 176 164 162 169 171 168 171 173 171 157 164 120
329 325 326 330 323 306 310 293 301 308 305 303 297 293 278 258 291 294 282 240 247 252 237 233 226 239 237 233 203 193 194 160 168 160 146 139 140 151 154 150 161 156 148
329 319 315 307 304 301 305 301 318 328 321 313 317 301 276 277 275 277 271 268 243 219 220 214 239 246 239 237 223 192 193 169 160 149 149 147 153 158 155 151 147 124 79
320 301 286 287 281 276 293 307 324 323 314 302 303 304 303 318 312 307 297 287 300 201 178 229 251 252 251 249 183 191 179 169 151 161 159 146 147 127 108 102 96 107 96
318 315 313 307 305 294 269 271 259 291 300 292 298 297 293 293 277 281 289 307 288 127 172 327 283 267 244 195 168 179 141 159 161 156 140 124 114 119 126 135 133 131 132
310 303 304 301 299 302 278 272 254 256 219 244 263 248 289 305 281 284 258 296 141 121 92 36 16 54 51 49 81 144 131 124 129 132 133 135 122 122 127 123 107 116 168
321 319 319 312 307 299 297 307 303 286 291 279 285 268 259 269 295 309 274 262 152 129 71 59 18 37 90 103 114 74 95 134 134 134 139 136 141 151 142 112 104 157 186
279 294 291 286 282 280 276 262 284 317 28 52 61 61 33 321 325 313 266 270 148 108 88 115 110 102 83 82 79 77 72 52 56 91 82 105 114 124 131 141 161 173 212
279 265 260 261 265 266 241 238 220 216 247 317 13 35 31 26 25 6 335 56 146 75 63 51 42 61 65 47 30 43 67 82 70 62 59 54 64 86 101 182 190 180 181
292 289 293 298 284 247 230 224 215 193 158 350 344 352 359 6 43 37 42 51 68 52 45 53 39 40 44 50 41 41 44 45 45 52 53 51 40 58 59 40 47 140 133
291 279 286 282 278 250 231 212 184 156 113 75 19 310 311 10 48 37 29 43 60 57 52 56 44 46 42 37 38 41 61 46 42 49 51 55 58 60 95 108 113 135 160
288 291 288 290 319 318 305 190 163 129 109 81 351 360 62 98 85 73 54 41 52 51 50 59 59 60 48 42 44 57 62 57 58 74 68 67 63 79 76 90 108 98 102
290 293 304 305 330 33 52 39 53 101 112 115 39 36 73 62 73 84 80 64 48 43 24 55 73 60 55 63 41 67 75 80 69 70 69 68 70 78 83 82 78 102 113
297 301 319 348 16 55 55 63 83 91 95 90 85 64 50 61 68 65 84 95 88 81 41 58 73 78 98 114 85 80 98 99 86 100 99 86 79 84 95 113 114 96 169
320 335 344 8 41 72 80 85 88 96 111 112 101 79 70 72 84 82 67 54 105 136 146 114 82 65 54 76 85 77 86 120 121 114 117 121 120 107 102 106 162 202 201
350 2 14 16 34 58 78 75 83 83 85 85 95 110 117 99 72 49 35 336 333 353 355 35 208 309 347 329 308 284 259 351 160 154 127 117 137 149 149 161 177 201 200
359 11 10 10 25 26 34 55 66 71 78 74 65 16 324 287 262 255 270 270 270 277 273 256 266 266 267 259 257 257 254 246 214 185 161 143 155 178 169 192 187 183 193